TimeCDT,TemperatureF,Dew PointF,Humidity,Sea Level PressureIn,VisibilityMPH,Wind Direction,Wind SpeedMPH,Gust SpeedMPH,PrecipitationIn,Events,Conditions,WindDirDegrees,DateUTC
12:58 AM,67.5,67.5,100,30.00,10.0,WNW,2.3,-,N/A,,Clear,290,2013-05-12 05:58:00
1:58 AM,66.9,66.9,100,29.99,10.0,NW,1.2,-,N/A,,Clear,310,2013-05-12 06:58:00
2:08 AM,66.2,66.2,100,29.98,8.0,Calm,Calm,-,N/A,,Clear,0,2013-05-12 07:08:00
2:18 AM,66.2,66.2,100,29.97,10.0,Calm,Calm,-,N/A,,Clear,0,2013-05-12 07:18:00
2:48 AM,66.2,66.2,100,29.97,7.0,Calm,Calm,-,N/A,,Clear,0,2013-05-12 07:48:00
2:58 AM,66.4,66.4,100,29.99,5.0,Calm,Calm,-,N/A,,Clear,0,2013-05-12 07:58:00
3:03 AM,66.2,66.2,100,29.98,10.0,NNW,1.2,-,N/A,,Clear,340,2013-05-12 08:03:00
3:33 AM,64.4,64.4,100,29.97,8.0,NNW,5.8,-,N/A,,Partly Cloudy,330,2013-05-12 08:33:00
3:43 AM,64.4,60.8,88,29.97,5.0,NNW,5.8,-,N/A,,Haze,330,2013-05-12 08:43:00
3:48 AM,66.2,62.6,88,29.98,4.0,NNW,6.9,-,N/A,,Mostly Cloudy,330,2013-05-12 08:48:00
3:58 AM,66.0,66.0,100,29.99,3.0,NW,9.2,-,N/A,,Overcast,320,2013-05-12 08:58:00
4:03 AM,66.2,66.2,100,29.98,2.5,NW,8.1,-,N/A,,Overcast,320,2013-05-12 09:03:00
4:08 AM,66.2,66.2,100,29.98,3.0,NNW,8.1,-,N/A,,Overcast,330,2013-05-12 09:08:00
4:13 AM,66.2,66.2,100,29.98,5.0,NNW,9.2,-,N/A,,Overcast,340,2013-05-12 09:13:00
4:38 AM,66.2,66.2,100,29.99,10.0,NNW,8.1,-,N/A,,Overcast,340,2013-05-12 09:38:00
4:43 AM,66.2,66.2,100,29.99,10.0,NNW,8.1,-,N/A,,Overcast,340,2013-05-12 09:43:00
4:53 AM,66.2,66.2,100,30.00,10.0,NNW,5.8,-,N/A,,Overcast,340,2013-05-12 09:53:00
4:58 AM,65.8,65.8,100,30.00,10.0,NNW,5.8,-,N/A,,Overcast,340,2013-05-12 09:58:00
5:13 AM,64.4,64.4,100,30.00,10.0,NNW,6.9,-,N/A,,Scattered Clouds,340,2013-05-12 10:13:00
5:58 AM,63.9,63.9,100,30.02,10.0,North,3.5,-,N/A,,Clear,350,2013-05-12 10:58:00
6:58 AM,64.6,64.6,100,30.05,10.0,NNE,3.5,-,N/A,,Clear,30,2013-05-12 11:58:00
7:58 AM,67.3,67.3,100,30.06,10.0,NNE,9.2,-,N/A,,Clear,30,2013-05-12 12:58:00
8:58 AM,71.8,71.2,98,30.07,10.0,NNE,9.2,-,N/A,,Clear,20,2013-05-12 13:58:00
9:58 AM,74.7,67.6,79,30.08,10.0,North,8.1,-,N/A,,Clear,10,2013-05-12 14:58:00
10:58 AM,75.7,65.8,71,30.08,10.0,North,9.2,-,N/A,,Clear,10,2013-05-12 15:58:00
11:58 AM,77.7,63.3,61,30.07,10.0,North,12.7,17.3,N/A,,Partly Cloudy,360,2013-05-12 16:58:00
12:58 PM,79.7,60.1,51,30.07,10.0,NNW,6.9,-,N/A,,Mostly Cloudy,340,2013-05-12 17:58:00
1:58 PM,77.9,66.2,67,30.06,10.0,Variable,4.6,-,N/A,,Scattered Clouds,0,2013-05-12 18:58:00
2:12 PM,80.6,62.6,54,30.05,10.0,Variable,5.8,-,N/A,,Light Drizzle,0,2013-05-12 19:12:00
2:15 PM,80.6,62.6,54,30.04,10.0,North,9.2,-,N/A,,Partly Cloudy,10,2013-05-12 19:15:00
2:58 PM,80.8,59.9,49,30.05,10.0,North,10.4,-,0.00,,Partly Cloudy,360,2013-05-12 19:58:00
3:58 PM,79.5,60.6,52,30.04,10.0,North,11.5,-,N/A,,Clear,350,2013-05-12 20:58:00
4:58 PM,79.0,61.9,56,30.04,10.0,North,13.8,17.3,N/A,,Clear,10,2013-05-12 21:58:00
5:58 PM,76.8,61.2,58,30.04,10.0,North,9.2,-,N/A,,Partly Cloudy,350,2013-05-12 22:58:00
6:58 PM,76.3,61.3,60,30.05,10.0,North,6.9,-,N/A,,Clear,350,2013-05-12 23:58:00
7:58 PM,71.2,59.9,67,30.06,10.0,North,6.9,-,N/A,,Clear,350,2013-05-13 00:58:00
8:58 PM,68.5,60.3,75,30.08,10.0,North,5.8,-,N/A,,Clear,360,2013-05-13 01:58:00
9:58 PM,65.1,59.2,81,30.09,10.0,North,9.2,-,N/A,,Clear,360,2013-05-13 02:58:00
10:58 PM,63.9,58.6,83,30.10,10.0,North,10.4,-,N/A,,Clear,360,2013-05-13 03:58:00
11:55 PM,60.8,57.2,88,30.10,10.0,North,10.4,-,N/A,,Clear,10,2013-05-13 04:55:00